• In Hungary
  • List of Countries
  • For 7 days
  • Water Temperature
  • Satellite Maps
  • Weather Map
  • News
  • Weather Widgets
  • user-avatar
    Login

    Hourly Weather Legowo

    Today, 13 November, Tuesday

    Time Temperature Precipitation Wind Pressure Humidity
    00:00 +9°C° 0 mm 6 mps 763 mmHg 87%
    01:00 +9°C° 0 mm 6 mps 763 mmHg 88%
    02:00 +9°C° 0 mm 6 mps 763 mmHg 89%
    03:00 +9°C° 0 mm 5 mps 763 mmHg 90%
    04:00 +8°C° 0 mm 5 mps 763 mmHg 91%
    05:00 +8°C° 0 mm 5 mps 763 mmHg 91%
    06:00 +8°C° 0 mm 5 mps 763 mmHg 91%
    07:00 +8°C° 0 mm 4 mps 763 mmHg 91%
    08:00 +8°C° 0.1 mm 4 mps 763 mmHg 89%
    09:00 +10°C° 0.1 mm 4 mps 763 mmHg 87%
    10:00 +10°C° 0.1 mm 4 mps 763 mmHg 85%
    11:00 +10°C° 0.2 mm 4 mps 763 mmHg 85%
    12:00 +10°C° 0.2 mm 3 mps 763 mmHg 85%
    13:00 +11°C° 0.2 mm 3 mps 763 mmHg 84%
    14:00 +10°C° 1.1 mm 3 mps 763 mmHg 87%
    15:00 +10°C° 1.1 mm 4 mps 763 mmHg 89%
    16:00 +10°C° 1.1 mm 4 mps 763 mmHg 91%
    17:00 +10°C° 0.5 mm 4 mps 763 mmHg 90%
    18:00 +9°C° 0.5 mm 5 mps 763 mmHg 89%
    19:00 +8°C° 0.5 mm 5 mps 763 mmHg 88%
    20:00 +8°C° 0.2 mm 5 mps 764 mmHg 88%
    21:00 +8°C° 0.2 mm 5 mps 764 mmHg 88%
    22:00 +8°C° 0.2 mm 5 mps 764 mmHg 87%
    23:00 +8°C° 0.1 mm 5 mps 764 mmHg 87%

    Tomorrow, 14 November, Wednesday

    Time Temperature Precipitation Wind Pressure Humidity
    00:00 +8°C° 0.1 mm 6 mps 764 mmHg 86%
    01:00 +8°C° 0.1 mm 6 mps 764 mmHg 86%
    02:00 +8°C° 0.1 mm 6 mps 764 mmHg 85%
    03:00 +8°C° 0.1 mm 6 mps 764 mmHg 84%
    04:00 +8°C° 0.1 mm 6 mps 764 mmHg 83%
    05:00 +8°C° 0.2 mm 6 mps 765 mmHg 84%
    06:00 +8°C° 0.2 mm 6 mps 765 mmHg 85%
    07:00 +8°C° 0.2 mm 5 mps 765 mmHg 86%
    08:00 +9°C° 0.1 mm 5 mps 766 mmHg 84%
    09:00 +9°C° 0.1 mm 5 mps 766 mmHg 82%
    10:00 +9°C° 0.1 mm 5 mps 767 mmHg 81%
    11:00 +10°C° 0.1 mm 5 mps 767 mmHg 79%
    12:00 +10°C° 0.1 mm 5 mps 767 mmHg 77%
    13:00 +10°C° 0.1 mm 5 mps 768 mmHg 75%
    14:00 +11°C° 0 mm 4 mps 768 mmHg 77%
    15:00 +10°C° 0 mm 4 mps 768 mmHg 80%
    16:00 +10°C° 0 mm 4 mps 769 mmHg 82%
    17:00 +8°C° 0 mm 4 mps 769 mmHg 84%
    18:00 +9°C° 0 mm 3 mps 769 mmHg 86%
    19:00 +9°C° 0 mm 3 mps 770 mmHg 87%
    20:00 +8°C° 0 mm 3 mps 770 mmHg 88%
    21:00 +8°C° 0 mm 3 mps 770 mmHg 89%
    22:00 +8°C° 0 mm 2 mps 771 mmHg 90%
    23:00 +7°C° 0 mm 2 mps 771 mmHg 91%

    Day after tomorrow, 15 November, Thursday

    Time Temperature Precipitation Wind Pressure Humidity
    00:00 +7°C° 0 mm 2 mps 771 mmHg 92%
    01:00 +7°C° 0 mm 2 mps 771 mmHg 92%
    02:00 +7°C° 0 mm 2 mps 771 mmHg 93%
    03:00 +6°C° 0 mm 2 mps 771 mmHg 94%
    04:00 +7°C° 0 mm 1 mps 771 mmHg 94%
    05:00 +7°C° 0 mm 1 mps 772 mmHg 94%
    06:00 +6°C° 0 mm 2 mps 772 mmHg 94%
    07:00 +7°C° 0 mm 2 mps 772 mmHg 94%
    08:00 +7°C° 0 mm 2 mps 772 mmHg 90%
    09:00 +9°C° 0 mm 1 mps 773 mmHg 87%
    10:00 +9°C° 0 mm 1 mps 773 mmHg 84%
    11:00 +10°C° 0 mm 1 mps 773 mmHg 80%
    12:00 +9°C° 0 mm 2 mps 773 mmHg 77%
    13:00 +10°C° 0 mm 2 mps 773 mmHg 74%
    14:00 +10°C° 0 mm 1 mps 773 mmHg 77%
    15:00 +10°C° 0 mm 1 mps 773 mmHg 80%
    16:00 +9°C° 0 mm 1 mps 773 mmHg 83%
    17:00 +9°C° 0 mm 1 mps 773 mmHg 83%
    18:00 +9°C° 0 mm 1 mps 774 mmHg 84%
    19:00 +8°C° 0 mm 2 mps 774 mmHg 85%
    20:00 +7°C° 0 mm 2 mps 774 mmHg 87%
    21:00 +7°C° 0 mm 2 mps 774 mmHg 88%
    22:00 +6°C° 0 mm 2 mps 774 mmHg 89%
    23:00 +6°C° 0 mm 2 mps 775 mmHg 90%

    16 November, Friday

    Time Temperature Precipitation Wind Pressure Humidity
    00:00 +6°C° 0 mm 2 mps 775 mmHg 91%
    01:00 +5°C° 0 mm 2 mps 775 mmHg 93%
    02:00 +5°C° 0 mm 2 mps 775 mmHg 93%
    03:00 +5°C° 0 mm 2 mps 775 mmHg 94%
    04:00 +5°C° 0 mm 2 mps 775 mmHg 95%
    05:00 +4°C° 0 mm 2 mps 776 mmHg 95%
    06:00 +3°C° 0 mm 3 mps 776 mmHg 95%
    07:00 +3°C° 0 mm 3 mps 776 mmHg 95%
    08:00 +4°C° 0 mm 3 mps 776 mmHg 92%
    09:00 +5°C° 0 mm 3 mps 777 mmHg 88%
    10:00 +5°C° 0 mm 3 mps 777 mmHg 85%
    11:00 +7°C° 0 mm 3 mps 777 mmHg 82%
    12:00 +8°C° 0 mm 2 mps 777 mmHg 79%
    13:00 +8°C° 0 mm 2 mps 777 mmHg 75%
    14:00 +8°C° 0 mm 2 mps 777 mmHg 78%
    15:00 +7°C° 0 mm 2 mps 777 mmHg 82%
    16:00 +6°C° 0 mm 2 mps 777 mmHg 85%
    17:00 +6°C° 0 mm 2 mps 777 mmHg 86%
    18:00 +5°C° 0 mm 2 mps 777 mmHg 87%
    19:00 +5°C° 0 mm 2 mps 778 mmHg 88%
    20:00 +5°C° 0 mm 2 mps 778 mmHg 88%
    21:00 +4°C° 0 mm 2 mps 778 mmHg 88%
    22:00 +4°C° 0 mm 2 mps 778 mmHg 88%
    23:00 +4°C° 0 mm 2 mps 778 mmHg 89%

    17 November, Saturday

    Time Temperature Precipitation Wind Pressure Humidity
    00:00 +4°C° 0 mm 2 mps 778 mmHg 89%
    01:00 +3°C° 0 mm 2 mps 779 mmHg 90%
    02:00 +3°C° 0 mm 2 mps 779 mmHg 90%
    03:00 +3°C° 0 mm 2 mps 779 mmHg 91%
    04:00 +4°C° 0 mm 1 mps 779 mmHg 91%
    05:00 +4°C° 0 mm 1 mps 779 mmHg 91%
    06:00 +4°C° 0 mm 1 mps 779 mmHg 91%
    07:00 +4°C° 0 mm 1 mps 779 mmHg 91%
    08:00 +4°C° 0 mm 1 mps 779 mmHg 87%
    09:00 +5°C° 0 mm 1 mps 779 mmHg 83%
    10:00 +6°C° 0 mm 1 mps 779 mmHg 79%
    11:00 +7°C° 0 mm 1 mps 779 mmHg 75%
    12:00 +7°C° 0 mm 1 mps 779 mmHg 72%
    13:00 +8°C° 0 mm 1 mps 778 mmHg 68%
    14:00 +7°C° 0 mm 1 mps 778 mmHg 71%
    15:00 +7°C° 0 mm 1 mps 778 mmHg 75%
    16:00 +5°C° 0 mm 0 mps 778 mmHg 78%
    17:00 +5°C° 0 mm 0 mps 778 mmHg 79%
    18:00 +6°C° 0 mm 1 mps 778 mmHg 80%
    19:00 +5°C° 0 mm 1 mps 777 mmHg 81%
    20:00 +5°C° 0 mm 1 mps 777 mmHg 81%
    21:00 +5°C° 0 mm 1 mps 777 mmHg 81%
    22:00 +5°C° 0 mm 1 mps 777 mmHg 81%
    23:00 +5°C° 0 mm 1 mps 777 mmHg 81%

    18 November, Sunday

    Time Temperature Precipitation Wind Pressure Humidity
    00:00 +4°C° 0 mm 2 mps 776 mmHg 81%
    01:00 +4°C° 0 mm 2 mps 776 mmHg 82%
    02:00 +3°C° 0 mm 3 mps 776 mmHg 82%
    03:00 +3°C° 0 mm 3 mps 775 mmHg 83%
    04:00 +3°C° 0 mm 3 mps 775 mmHg 83%
    05:00 +3°C° 0 mm 3 mps 774 mmHg 85%
    06:00 +3°C° 0 mm 3 mps 774 mmHg 87%
    07:00 +3°C° 0 mm 4 mps 774 mmHg 89%
    08:00 +4°C° 0 mm 4 mps 773 mmHg 88%
    09:00 +5°C° 0 mm 4 mps 773 mmHg 86%
    10:00 +6°C° 0 mm 4 mps 773 mmHg 85%
    11:00 +7°C° 0 mm 5 mps 772 mmHg 85%
    12:00 +7°C° 0 mm 5 mps 772 mmHg 84%
    13:00 +7°C° 0 mm 5 mps 771 mmHg 83%
    14:00 +7°C° 0 mm 6 mps 771 mmHg 82%
    15:00 +7°C° 0 mm 6 mps 771 mmHg 80%
    16:00 +7°C° 0 mm 6 mps 770 mmHg 78%
    17:00 +5°C° 0 mm 6 mps 770 mmHg 79%
    18:00 +5°C° 0 mm 7 mps 770 mmHg 79%
    19:00 +4°C° 0 mm 7 mps 770 mmHg 80%
    20:00 +4°C° 0.1 mm 7 mps 770 mmHg 78%
    21:00 +4°C° 0.1 mm 7 mps 770 mmHg 76%
    22:00 +4°C° 0.1 mm 6 mps 770 mmHg 74%
    23:00 +4°C° 0.1 mm 6 mps 770 mmHg 75%
    Show more